Location: El Centro
(32.7920°N, 115.5620°W)
Time: 22:23:47
(UTC-07:00)

Amateur Radio Satellites - All Passes

Search period start: 03 August 2015 21:53
Search period end: 04 August 2015 21:53
Location: El Centro, 32.7920°N, 115.5620°W

Satellite Date Start Highest point End Downlink Frequencies (MHz)
Time Altitude Azimuth
HO-68 03 Aug 21:56:08 22:01:39 23° 266° (W) 22:06:53 435.675
AUBIESAT-1 03 Aug 21:57:20 22:01:27 31° 100° (E) 22:05:26 437.475
VELOX 1 03 Aug 21:57:41 21:59:38 13° 68° (ENE) 22:01:48 145.980
UNISAT 6 03 Aug 21:58:43 21:59:06 10° 89° (E) 21:59:51 437.425
ZACube-1 03 Aug 22:03:07 22:07:17 73° 259° (W) 22:11:34 437.345
ESTCUBE 1 03 Aug 22:20:32 22:23:24 17° 70° (ENE) 22:26:26 437.505/2401.250
BEESAT 3 03 Aug 22:22:16 22:26:16 66° 117° (ESE) 22:30:20 437.485
FUNcube-1 03 Aug 22:23:40 22:27:37 41° 262° (W) 22:31:40 145.935
HUMSAT D 03 Aug 22:24:36 22:28:43 75° 77° (ENE) 22:32:55 437.325/437.525
Oscar 11 03 Aug 22:32:07 22:35:19 19° 266° (W) 22:38:24 145.826/435.025
UKube-1 03 Aug 22:32:27 22:36:39 56° 75° (ENE) 22:40:54 .
UWE-3 03 Aug 22:35:02 22:38:21 22° 266° (W) 22:41:37 435.000/436.395/437.385
TIGRISAT 03 Aug 22:37:30 22:41:36 30° 96° (E) 22:45:45 435.000
ANTELSAT 03 Aug 22:40:33 22:44:48 34° 97° (E) 22:49:05 437.575/2403.000
PHONESAT 2.4 03 Aug 22:44:23 22:47:33 31° 14° (NNE) 22:50:44 2401.200-2431.200
POLYITAN 1 03 Aug 22:52:37 22:55:00 15° 93° (E) 22:57:36 437.675
AISAT 03 Aug 22:53:23 22:57:44 64° 76° (ENE) 23:02:06 437.250
AIST 1 03 Aug 22:55:31 22:59:44 63° 82° (E) 23:03:57
CUBEBUG 1 03 Aug 22:58:10 23:02:10 37° 73° (ENE) 23:06:10 437.445
50 SAT 03 Aug 22:58:40 23:02:32 88° 79° (E) 23:06:29 437.505
M-CUBED/EXP-1 PRIME 03 Aug 23:05:21 23:09:46 37° 292° (WNW) 23:13:57 437.505
DX 1 03 Aug 23:05:26 23:09:39 50° 260° (W) 23:13:52 434.975-435.025
POPSAT HIP 1 03 Aug 23:07:36 23:10:56 22° 95° (E) 23:14:21 437.405
QB50P2 03 Aug 23:15:46 23:19:30 29° 97° (E) 23:23:17 145.880/145.840
RS-15 03 Aug 23:18:24 23:27:13 26° 321° (NW) 23:35:55 29.354- 29.394
VERMONT LUNAR 03 Aug 23:18:29 23:20:57 21° 216° (SW) 23:23:21 437.305
SPROUT 03 Aug 23:23:07 23:26:04 19° 71° (ENE) 23:29:09 437.525
TISAT 1 03 Aug 23:24:32 23:25:33 11° 68° (ENE) 23:26:49 437.305
BEESAT 2 03 Aug 23:25:14 23:28:53 30° 304° (NW) 23:32:31 435.950
VELOX 1 03 Aug 23:31:36 23:35:50 45° 261° (W) 23:40:03 145.980
UNISAT 6 03 Aug 23:31:40 23:36:19 61° 284° (WNW) 23:40:57 437.425
AUBIESAT-1 03 Aug 23:32:15 23:35:57 23° 295° (WNW) 23:39:25 437.475
DUCHIFAT 1 03 Aug 23:36:23 23:40:30 49° 99° (E) 23:44:39 145.980
Cosmos 2491 03 Aug 23:39:21 23:48:06 86° 265° (W) 23:56:50 435.465 / 435.565
AIST 2 03 Aug 23:40:26 23:44:39 76° 117° (ESE) 23:48:55 435.215
NANOSAT C BR1 03 Aug 23:41:58 23:46:11 60° 100° (E) 23:50:24 145.865
QB50P1 03 Aug 23:42:03 23:46:16 62° 100° (E) 23:50:30 145.935-145.965
YUBILEINY 03 Aug 23:53:26 00:01:55 62° 92° (E) 00:10:31 435.215
ESTCUBE 1 03 Aug 23:55:50 00:00:01 35° 262° (W) 00:04:10 437.505/2401.250
BEESAT 3 04 Aug 00:04:02 00:04:41 10° 313° (NW) 00:05:08 437.485
TIGRISAT 04 Aug 00:14:31 00:18:11 22° 289° (WNW) 00:21:43 435.000
ANTELSAT 04 Aug 00:17:54 00:21:21 20° 290° (WNW) 00:24:39 437.575/2403.000
O/OREOS (USA 219) 04 Aug 00:21:14 00:25:20 38° 105° (ESE) 00:29:32 437.305
PHONESAT 2.4 04 Aug 00:22:12 00:25:41 64° 210° (SSW) 00:29:08 2401.200-2431.200
POLYITAN 1 04 Aug 00:27:06 00:31:03 35° 286° (WNW) 00:34:56 437.675
BUGSAT 1 04 Aug 00:29:50 00:33:51 55° 284° (WNW) 00:37:53 437.445
ITUPSAT 1 04 Aug 00:34:41 00:36:33 13° 67° (ENE) 00:38:42 437.325
CUBEBUG 1 04 Aug 00:36:08 00:38:40 15° 267° (W) 00:41:01 437.445
JUGNU 04 Aug 00:41:31 00:43:47 12° 164° (SSE) 00:46:11 437.505
POPSAT HIP 1 04 Aug 00:43:16 00:46:43 24° 288° (WNW) 00:50:07 437.405
QB50P2 04 Aug 00:52:11 00:55:12 18° 289° (WNW) 00:58:05 145.880/145.840
TISAT 1 04 Aug 00:56:53 01:00:56 48° 260° (W) 01:04:59 437.305
SPROUT 04 Aug 00:58:17 01:01:58 28° 264° (W) 01:05:38 437.525
Cosmos 2504 04 Aug 01:01:03 01:04:03 14° 82° (E) 01:07:42 435.465 / 435.565
DUCHIFAT 1 04 Aug 01:14:30 01:15:56 11° 291° (WNW) 01:17:07 145.980
Oscar 19 04 Aug 01:19:03 01:23:08 24° 95° (E) 01:27:21 437.125/150
BEESAT 04 Aug 01:25:45 01:30:20 47° 74° (ENE) 01:34:57 436.000
Cosmos 2491 04 Aug 01:40:15 01:43:56 13° 279° (W) 01:46:51 435.465 / 435.565
SWISSCUBE 04 Aug 01:46:34 01:51:22 89° 77° (ENE) 01:56:13 437.505
YUBILEINY 04 Aug 01:52:38 01:59:26 24° 291° (WNW) 02:05:54 435.215
O/OREOS (USA 219) 04 Aug 02:02:10 02:04:59 16° 301° (WNW) 02:07:39 437.305
ITUPSAT 1 04 Aug 02:09:16 02:14:01 57° 260° (W) 02:18:45 437.325
JAS-2 04 Aug 02:09:31 02:10:49 11° 84° (E) 02:12:52 435.910
JUGNU 04 Aug 02:27:52 02:32:12 21° 173° (S) 02:36:33 437.505
STARS 04 Aug 02:28:38 02:31:37 19° 70° (ENE) 02:34:45 437.465
SRMSAT 04 Aug 02:39:13 02:41:47 13° 165° (SSE) 02:44:27 437.500
Gurwin Techsat 1B 04 Aug 02:43:26 02:48:33 48° 99° (E) 02:53:41 435.225
ITAMSAT 1 04 Aug 02:46:37 02:51:33 44° 99° (E) 02:56:29 435.822/435.867
Cosmos 2504 04 Aug 02:48:14 02:55:19 78° 277° (W) 03:02:57 435.465 / 435.565
Oscar 19 04 Aug 02:57:54 03:02:31 32° 289° (WNW) 03:07:04 437.125/150
ISS 04 Aug 02:59:24 03:02:35 50° 41° (NE) 03:05:45 145.825
KKS-1 04 Aug 03:02:10 03:06:34 86° 80° (E) 03:11:01 437.445
CUSAT 1 04 Aug 03:03:48 03:03:59 10° 96° (E) 03:04:20 437.405
BEESAT 04 Aug 03:05:51 03:08:28 14° 268° (W) 03:10:49 436.000
JAS-2 04 Aug 03:49:16 03:57:11 76° 102° (ESE) 04:04:43 435.910
AO-7 04 Aug 03:55:14 04:02:38 36° 98° (E) 04:10:09 29.400- 29.500
RS-15 04 Aug 03:57:49 04:05:16 19° 32° (NNE) 04:13:27 29.354- 29.394
STARS 04 Aug 04:04:01 04:07:52 30° 263° (W) 04:11:41 437.465
HORYU 2 04 Aug 04:04:46 04:08:52 34° 98° (E) 04:12:58 437.375
JUGNU 04 Aug 04:16:05 04:20:39 23° 183° (S) 04:25:12 437.505
MOZHAYETS 4 04 Aug 04:16:33 04:21:06 61° 76° (ENE) 04:25:43
Gurwin Techsat 1B 04 Aug 04:24:41 04:28:12 17° 292° (WNW) 04:31:28 435.225
SRMSAT 04 Aug 04:25:59 04:30:20 21° 174° (S) 04:34:42 437.500
ITAMSAT 1 04 Aug 04:27:13 04:30:45 18° 292° (WNW) 04:34:04 435.822/435.867
GONETS M04 04 Aug 04:37:48 04:44:08 24° 85° (E) 04:50:50
ISS 04 Aug 04:38:10 04:38:42 10° 233° (SW) 04:39:05 145.825
CUSAT 1 04 Aug 04:45:27 04:46:26 11° 284° (WNW) 04:47:16 437.405
DANDE 04 Aug 04:47:57 04:50:31 21° 280° (W) 04:52:44 436.750
JAS-2 04 Aug 05:35:57 05:41:27 20° 296° (WNW) 05:46:30 435.910
HORYU 2 04 Aug 05:42:10 05:45:15 18° 291° (WNW) 05:48:10 437.375
AO-7 04 Aug 05:47:45 05:55:30 43° 294° (WNW) 06:03:06 29.400- 29.500
Cosmos 2499 04 Aug 05:57:11 06:00:27 14° 82° (E) 06:04:25 435.465 / 435.565
PRISM 04 Aug 06:00:11 06:01:27 11° 68° (ENE) 06:02:57 437.425
JUGNU 04 Aug 06:05:27 06:09:04 16° 192° (SSW) 06:12:36 437.505
RS-15 04 Aug 06:08:53 06:20:40 67° 58° (ENE) 06:32:53 29.354- 29.394
SRMSAT 04 Aug 06:14:26 06:18:56 22° 184° (S) 06:23:25 437.500
CUTE-I 04 Aug 06:18:24 06:22:57 29° 96° (E) 06:27:33 437.470
CUBESAT XI-V 04 Aug 06:19:59 06:24:40 76° 259° (WSW) 06:29:21 437.345
GONETS M04 04 Aug 06:31:54 06:40:28 59° 280° (W) 06:49:00
STRAND 1 04 Aug 06:34:26 06:39:16 43° 73° (ENE) 06:44:08 437.568
BEESAT 3 04 Aug 06:47:00 06:48:09 11° 48° (NE) 06:49:30 437.485
Cubesat XI-IV 04 Aug 07:02:55 07:08:16 85° 102° (ESE) 07:13:35 437.490
SO-50 04 Aug 07:13:39 07:16:34 17° 109° (ESE) 07:19:43 436.795
PRISM 04 Aug 07:32:28 07:36:31 47° 260° (W) 07:40:33 437.425
PCSat 04 Aug 07:41:44 07:46:45 41° 110° (ESE) 07:51:51 145.827
HO-68 04 Aug 07:43:09 07:44:49 11° 88° (E) 07:47:10 435.675
Cosmos 2499 04 Aug 07:45:15 07:52:37 80° 277° (W) 08:00:37 435.465 / 435.565
BEESAT 2 04 Aug 07:47:57 07:51:45 38° 58° (ENE) 07:55:31 435.950
DOVE 4 04 Aug 07:49:57 07:50:36 10° 90° (E) 07:51:39 437.250
CUTE-I 04 Aug 07:58:28 08:02:57 28° 290° (WNW) 08:07:20 437.470
SRMSAT 04 Aug 08:04:06 08:07:30 15° 193° (SSW) 08:10:49 437.500
AIST 2 04 Aug 08:07:43 08:09:56 14° 49° (NE) 08:12:17 435.215
GOMX 1 04 Aug 08:15:13 08:19:33 36° 98° (E) 08:24:13 467.674
STRAND 1 04 Aug 08:15:13 08:18:42 17° 267° (W) 08:21:57 437.568
M-CUBED/EXP-1 PRIME 04 Aug 08:17:01 08:18:17 11° 61° (ENE) 08:19:49 437.505
BRITE-PL 04 Aug 08:22:03 08:26:37 77° 101° (ESE) 08:31:35 437.365/2234.400
SEEDS 04 Aug 08:22:22 08:24:10 13° 91° (E) 08:26:13 437.485
RS-15 04 Aug 08:22:32 08:32:35 31° 254° (WSW) 08:42:20 29.354- 29.394
BEESAT 3 04 Aug 08:22:33 08:26:30 56° 245° (WSW) 08:30:22 437.485
CUTE 1.7 + AOD 2 04 Aug 08:29:50 08:33:01 21° 94° (E) 08:36:19 437.475
CANX-2 04 Aug 08:38:20 08:42:06 30° 96° (E) 08:45:52 2200.000
AAUSAT CUBESAT 2 04 Aug 08:39:41 08:41:34 13° 91° (E) 08:43:41 437.432
AUBIESAT-1 04 Aug 08:41:08 08:43:59 19° 64° (ENE) 08:47:07 437.475
SO-50 04 Aug 08:52:16 08:56:46 43° 303° (WNW) 09:01:25 436.795
CINEMA 3 04 Aug 09:07:37 09:12:00 35° 97° (E) 09:16:34 145.822/145.860
CUBEBUG 2 04 Aug 09:15:38 09:18:50 19° 93° (E) 09:22:15 437.445
DOVE 4 04 Aug 09:23:59 09:28:43 65° 284° (WNW) 09:33:44 437.250
PCSat 04 Aug 09:26:04 09:30:21 23° 306° (NW) 09:34:32 145.827
HO-68 04 Aug 09:26:21 09:33:35 87° 105° (ESE) 09:40:48 435.675
BEESAT 2 04 Aug 09:27:28 09:29:29 13° 250° (WSW) 09:31:17 435.950
TIGRISAT 04 Aug 09:33:23 09:35:47 15° 69° (ENE) 09:38:25 435.000
COMPASS 1 04 Aug 09:34:56 09:39:10 84° 102° (ESE) 09:43:21 437.405
DELFI C3 04 Aug 09:35:14 09:37:43 16° 93° (E) 09:40:20 145.870
ANTELSAT 04 Aug 09:36:22 09:39:08 17° 70° (ENE) 09:42:07 437.575/2403.000
AIST 2 04 Aug 09:44:48 09:48:46 44° 246° (WSW) 09:52:40 435.215
Cosmos 2499 04 Aug 09:45:36 09:47:31 11° 299° (WNW) 09:48:43 435.465 / 435.565
M-CUBED/EXP-1 PRIME 04 Aug 09:48:35 09:52:31 54° 256° (WSW) 09:56:48 437.505
GOMX 1 04 Aug 09:54:07 09:57:31 19° 288° (WNW) 10:00:54 467.674
ZACube-1 04 Aug 09:56:10 10:00:12 30° 96° (E) 10:04:17 437.345
SEEDS 04 Aug 09:56:12 10:00:11 40° 286° (WNW) 10:04:08 437.485
CUTE 1.7 + AOD 2 04 Aug 10:05:20 10:08:55 25° 288° (WNW) 10:12:22 437.475
QB50P2 04 Aug 10:06:07 10:07:59 13° 69° (ENE) 10:10:04 145.880/145.840
YUBILEINY 04 Aug 10:10:10 10:16:46 24° 70° (ENE) 10:23:45 435.215
AAUSAT CUBESAT 2 04 Aug 10:13:28 10:17:22 37° 286° (WNW) 10:21:12 437.432
HUMSAT D 04 Aug 10:13:58 10:16:49 18° 93° (E) 10:19:49 437.325/437.525
CANX-2 04 Aug 10:14:49 10:17:49 18° 289° (WNW) 10:20:38 2200.000
AUBIESAT-1 04 Aug 10:14:51 10:18:28 30° 260° (W) 10:22:18 437.475
FUNcube-1 04 Aug 10:15:51 10:20:19 51° 99° (E) 10:24:47 145.935
Oscar 11 04 Aug 10:22:25 10:26:47 77° 284° (WNW) 10:31:06 145.826/435.025
DUCHIFAT 1 04 Aug 10:25:10 10:28:13 21° 71° (ENE) 10:31:24 145.980
UKube-1 04 Aug 10:26:02 10:28:00 13° 92° (E) 10:30:13 .
UNISAT 6 04 Aug 10:26:03 10:30:21 68° 77° (ENE) 10:34:48 437.425
UWE-3 04 Aug 10:27:45 10:32:26 84° 281° (W) 10:37:07 435.000/436.395/437.385
NANOSAT C BR1 04 Aug 10:30:39 10:34:02 25° 72° (ENE) 10:37:30 145.865
QB50P1 04 Aug 10:30:55 10:34:20 25° 72° (ENE) 10:37:50 145.935-145.965
O/OREOS (USA 219) 04 Aug 10:35:25 10:39:39 36° 66° (ENE) 10:43:55 437.305
50 SAT 04 Aug 10:39:52 10:41:53 14° 92° (E) 10:44:05 437.505
Cosmos 2491 04 Aug 10:41:09 10:47:01 21° 85° (E) 10:53:20 435.465 / 435.565
CINEMA 3 04 Aug 10:45:25 10:48:59 20° 289° (WNW) 10:52:30 145.822/145.860
AISAT 04 Aug 10:49:30 10:52:21 17° 94° (E) 10:55:22 437.250
CUBEBUG 2 04 Aug 10:51:19 10:55:36 35° 287° (WNW) 10:59:54 437.445
DX 1 04 Aug 10:58:09 11:02:11 37° 99° (E) 11:06:13 434.975-435.025
TIGRISAT 04 Aug 11:08:11 11:12:14 38° 263° (W) 11:16:21 435.000
DELFI C3 04 Aug 11:09:20 11:12:50 28° 287° (WNW) 11:16:16 145.870
ANTELSAT 04 Aug 11:11:44 11:15:41 33° 263° (W) 11:19:41 437.575/2403.000
POLYITAN 1 04 Aug 11:15:07 11:19:18 86° 258° (WSW) 11:23:32 437.675
BUGSAT 1 04 Aug 11:15:21 11:19:16 52° 75° (ENE) 11:23:12 437.445
HO-68 04 Aug 11:16:35 11:20:33 15° 299° (WNW) 11:24:05 435.675
AIST 1 04 Aug 11:20:10 11:24:19 46° 93° (E) 11:28:29
VELOX 1 04 Aug 11:26:15 11:30:29 46° 99° (E) 11:34:44 145.980
POPSAT HIP 1 04 Aug 11:30:46 11:34:52 55° 260° (W) 11:39:00 437.405
ZACube-1 04 Aug 11:32:55 11:36:22 21° 289° (WNW) 11:39:41 437.345
QB50P2 04 Aug 11:39:35 11:43:33 40° 262° (W) 11:47:31 145.880/145.840
HUMSAT D 04 Aug 11:48:46 11:52:36 31° 287° (WNW) 11:56:22 437.325/437.525
ESTCUBE 1 04 Aug 11:52:30 11:56:57 66° 100° (E) 12:01:24 437.505/2401.250
FUNcube-1 04 Aug 11:54:05 11:56:15 13° 291° (WNW) 11:58:09 145.935
UKube-1 04 Aug 12:00:17 12:04:21 40° 286° (WNW) 12:08:22 .
DUCHIFAT 1 04 Aug 12:00:26 12:03:54 24° 264° (W) 12:07:18 145.980
YUBILEINY 04 Aug 12:05:36 12:14:17 62° 268° (W) 12:22:53 435.215
NANOSAT C BR1 04 Aug 12:06:39 12:09:50 20° 265° (W) 12:12:55 145.865
QB50P1 04 Aug 12:07:02 12:10:11 20° 266° (W) 12:13:13 145.935-145.965
50 SAT 04 Aug 12:13:00 12:16:34 31° 287° (WNW) 12:20:04 437.505
O/OREOS (USA 219) 04 Aug 12:15:53 12:18:49 16° 259° (W) 12:21:33 437.305
AISAT 04 Aug 12:25:02 12:29:01 32° 287° (WNW) 12:32:56 437.250
CUBEBUG 1 04 Aug 12:27:09 12:31:24 56° 285° (WNW) 12:35:38 437.445
Oscar 19 04 Aug 12:31:59 12:35:49 23° 70° (ENE) 12:39:49 437.125/150
Cosmos 2491 04 Aug 12:34:33 12:43:15 66° 279° (W) 12:51:56 435.465 / 435.565
DX 1 04 Aug 12:35:32 12:38:08 15° 291° (WNW) 12:40:34 434.975-435.025
Cosmos 2504 04 Aug 12:39:45 12:46:39 28° 72° (ENE) 12:53:52 435.465 / 435.565
TISAT 1 04 Aug 12:45:41 12:49:31 34° 98° (E) 12:53:24 437.305
SPROUT 04 Aug 12:48:29 12:52:47 69° 101° (E) 12:57:05 437.525
AIST 1 04 Aug 13:00:58 13:02:18 11° 289° (WNW) 13:03:21
VELOX 1 04 Aug 13:04:33 13:06:41 13° 292° (WNW) 13:08:35 145.980
BEESAT 04 Aug 13:31:34 13:34:36 17° 93° (E) 13:37:48 436.000
CUSAT 1 04 Aug 13:39:47 13:42:09 14° 76° (ENE) 13:45:09 437.405
SWISSCUBE 04 Aug 13:51:45 13:56:00 32° 97° (E) 14:00:16 437.505
JAS-2 04 Aug 13:58:14 14:02:28 20° 63° (ENE) 14:07:18 435.910
Gurwin Techsat 1B 04 Aug 14:00:05 14:05:10 50° 74° (ENE) 14:10:19 435.225
ITAMSAT 1 04 Aug 14:00:12 14:05:05 44° 73° (ENE) 14:10:02 435.822/435.867
Oscar 19 04 Aug 14:10:22 14:15:00 34° 263° (W) 14:19:37 437.125/150
ITUPSAT 1 04 Aug 14:14:20 14:19:00 52° 100° (E) 14:23:37 437.325
TISAT 1 04 Aug 14:22:27 14:25:02 15° 290° (WNW) 14:27:27 437.305
Cosmos 2504 04 Aug 14:30:59 14:39:16 55° 269° (W) 14:47:31 435.465 / 435.565
AO-7 04 Aug 14:49:36 14:56:47 35° 64° (ENE) 15:04:08 29.400- 29.500
KKS-1 04 Aug 14:58:18 15:01:49 23° 95° (E) 15:05:26 437.445
HORYU 2 04 Aug 14:59:30 15:02:35 19° 70° (ENE) 15:05:49 437.375
BEESAT 04 Aug 15:08:11 15:12:36 38° 287° (WNW) 15:16:57 436.000
CUSAT 1 04 Aug 15:19:46 15:24:38 60° 263° (W) 15:31:03 437.405
DANDE 04 Aug 15:27:23 15:31:51 77° 262° (W) 15:37:56 436.750
SWISSCUBE 04 Aug 15:30:05 15:33:40 21° 290° (WNW) 15:37:06 437.505
JAS-2 04 Aug 15:40:57 15:46:53 59° 261° (W) 15:53:40 435.910
ITAMSAT 1 04 Aug 15:41:15 15:44:50 18° 267° (W) 15:48:11 435.822/435.867
Gurwin Techsat 1B 04 Aug 15:42:10 15:45:29 16° 268° (W) 15:48:32 435.225
VERMONT LUNAR 04 Aug 15:47:06 15:50:09 48° 149° (SSE) 15:53:14 437.305
ITUPSAT 1 04 Aug 15:54:04 15:56:29 13° 293° (WNW) 15:58:38 437.325
STARS 04 Aug 15:57:20 16:01:45 68° 101° (E) 16:06:10 437.465
MOZHAYETS 4 04 Aug 16:17:04 16:20:24 20° 93° (E) 16:23:51
KKS-1 04 Aug 16:34:41 16:38:23 25° 289° (WNW) 16:41:59 437.445
HORYU 2 04 Aug 16:35:04 16:39:02 31° 263° (W) 16:42:58 437.375
PCSat 04 Aug 16:35:25 16:38:14 15° 49° (NE) 16:41:18 145.827
AO-7 04 Aug 16:41:24 16:49:23 47° 260° (W) 16:57:18 29.400- 29.500
GONETS M04 04 Aug 16:47:26 16:55:59 58° 80° (E) 17:04:35
PHONESAT 2.4 04 Aug 17:04:58 17:07:50 24° 145° (SE) 17:10:45 2401.200-2431.200
VERMONT LUNAR 04 Aug 17:24:05 17:26:57 31° 344° (NNW) 17:29:50 437.305
SO-50 04 Aug 17:27:49 17:32:38 52° 58° (ENE) 17:37:19 436.795
CUTE-I 04 Aug 17:35:56 17:40:35 32° 71° (ENE) 17:45:20 437.470
Cosmos 2499 04 Aug 17:41:36 17:49:05 31° 73° (ENE) 17:56:47 435.465 / 435.565
MOZHAYETS 4 04 Aug 17:53:37 17:57:40 30° 288° (WNW) 18:01:37
ISS 04 Aug 18:00:54 18:02:25 13° 128° (SE) 18:04:04 145.825
PCSat 04 Aug 18:16:52 18:22:16 70° 247° (WSW) 18:27:38 145.827
Cubesat XI-IV 04 Aug 18:20:23 18:25:45 90° 130° (SE) 18:31:10 437.490
CUBESAT XI-V 04 Aug 18:21:23 18:25:37 37° 97° (E) 18:29:52 437.345
PHONESAT 2.4 04 Aug 18:42:12 18:45:39 55° 338° (NNW) 18:49:06 2401.200-2431.200
GONETS M04 04 Aug 18:45:31 18:52:20 25° 275° (W) 18:58:48
STRAND 1 04 Aug 18:50:13 18:53:55 21° 94° (E) 18:57:47 437.568
VERMONT LUNAR 04 Aug 19:01:48 19:04:12 19° 0° (N) 19:06:36 437.305
SO-50 04 Aug 19:10:02 19:12:46 14° 251° (WSW) 19:15:12 436.795
CUTE-I 04 Aug 19:16:14 19:20:41 26° 265° (W) 19:25:02 437.470
PRISM 04 Aug 19:19:15 19:22:52 31° 97° (E) 19:26:31 437.425
GOMX 1 04 Aug 19:20:36 19:23:40 21° 72° (ENE) 19:26:49 467.674
CANX-2 04 Aug 19:28:35 19:30:30 13° 69° (ENE) 19:32:39 2200.000
BRITE-PL 04 Aug 19:29:18 19:33:32 50° 76° (ENE) 19:37:37 437.365/2234.400
Cosmos 2499 04 Aug 19:34:05 19:42:34 51° 270° (W) 19:50:53 435.465 / 435.565
ISS 04 Aug 19:35:31 19:38:36 40° 319° (NW) 19:41:42 145.825
HO-68 04 Aug 19:50:11 19:56:42 42° 69° (ENE) 20:03:20 435.675
CUBESAT XI-V 04 Aug 19:59:46 20:02:48 17° 290° (WNW) 20:05:39 437.345
CINEMA 3 04 Aug 20:06:41 20:09:16 17° 70° (ENE) 20:12:03 145.822/145.860
PHONESAT 2.4 04 Aug 20:21:09 20:24:03 23° 354° (N) 20:26:56 2401.200-2431.200
COMPASS 1 04 Aug 20:21:51 20:25:31 31° 73° (ENE) 20:29:17 437.405
DOVE 4 04 Aug 20:25:45 20:29:53 76° 77° (ENE) 20:34:02 437.250
RS-15 04 Aug 20:26:34 20:37:13 66° 113° (ESE) 20:48:14 29.354- 29.394
STRAND 1 04 Aug 20:28:36 20:33:14 36° 288° (WNW) 20:37:49 437.568
VERMONT LUNAR 04 Aug 20:38:31 20:41:26 33° 17° (NNE) 20:44:21 437.305
SEEDS 04 Aug 20:43:09 20:47:22 77° 77° (ENE) 20:51:39 437.485
ZACube-1 04 Aug 20:49:37 20:51:36 14° 69° (ENE) 20:53:49 437.345
CUTE 1.7 + AOD 2 04 Aug 20:52:46 20:57:00 63° 260° (W) 21:01:15 437.475
PRISM 04 Aug 20:55:30 20:58:05 16° 290° (WNW) 21:00:30 437.425
GOMX 1 04 Aug 20:58:20 21:01:45 23° 264° (W) 21:05:02 467.674
AAUSAT CUBESAT 2 04 Aug 20:59:04 21:03:14 77° 77° (ENE) 21:07:28 437.432
CANX-2 04 Aug 21:02:02 21:06:05 42° 262° (W) 21:10:10 2200.000
FUNcube-1 04 Aug 21:08:05 21:11:16 22° 71° (ENE) 21:14:37 145.935
Oscar 11 04 Aug 21:12:39 21:16:46 45° 75° (ENE) 21:20:57 145.826/435.025
UWE-3 04 Aug 21:20:43 21:24:40 43° 74° (ENE) 21:28:46 435.000/436.395/437.385
M-CUBED/EXP-1 PRIME 04 Aug 21:34:43 21:37:59 19° 97° (E) 21:41:17 437.505
BEESAT 2 04 Aug 21:37:43 21:40:48 21° 111° (ESE) 21:44:00 435.950
HO-68 04 Aug 21:38:18 21:44:32 31° 264° (W) 21:50:38 435.675
CINEMA 3 04 Aug 21:42:37 21:46:17 29° 264° (W) 21:49:57 145.822/145.860
CUBEBUG 2 04 Aug 21:44:52 21:49:01 69° 259° (W) 21:53:17 437.445
